04:52
Airports
History
Links
Donate
Help me keep this website running!
Information on this page is community maintained and may be outdated or inaccurate and is intended for simulator navigating and reference only!
Always use approved charts for navigating.
13XS
Bethal
Bethal (13XS)
Jacksonville, Arkansas, United States (72076)
4
Lat/Lng:34° 56' 7.32" N / 92° 11' 31.53" W
34.935366 / -92.192093
Elevation:311'ft 95mMSL
ID / ICAO:13XS
Runways:1
Longest:(09-27) 402.3m 1320ft Grass
Controlled:No
Distance To
Airport ID:
Nearby VORs <50NM
Nearby NDBs
Nearby WeatherUpdated 08-26-16 03:58 GMT
Nearby weather at KLRF, Little Rock Afb located 2.9 nautical miles from 13XS
Altimeter: 30.09
Visibility: 10.0 statute miles
Wind: 0 knots (000°)
Temp: 25°c 77°f
Humidity: 100.0%

METAR: KLRF 260358Z AUTO 00000KT 10SM CLR 25/25 A3009 RMK AO2 DZB0258E14DZB15E25 SLP189 P0000 T02530253

(Powered by phpweather)
Runway 09 / 27
Dimensions:402.3 x 30.5 m / 1320' x 100' ft
Surface:Grass
Runway 09 [A]Runway 27 [B]
Heading:093° True 273° True
Lat:
Lng:
34° 56' 7.66"N
92° 11' 39.53"W
34° 56' 6.98"N
92° 11' 23.54"W
Google Map
Nearby Airports
(R) Little Rock Afb 2.9 NM
KLRF (WX) ESE 116°
4 Robert Chris Mc Intosh 6.3 NM
4X6 S 169°
4 Bobwhite Hill Ranch 6.4 NM
AR84 WNW 289°
(U) North Little Rock Muni 7.9 NM
KORK SSW 206°
(R) Robinson Aaf/ng 8.5 NM
KRBM SW 226°
(R) Shurley Field 9.0 NM
4AR1 NE 35°
(R) Cypress Creek Airpark 9.2 NM
6AR0 NNE 27°
VFR Chart
Flight Planning at SkyVector.com